Simultaneous Nadir Overpasses (SNOs) Predictions

Prediction of SNOs between METOP-A and NOAA-19 Satellite Orbit:

Table of predicted SNOs for the next 14.0 days since TLE Epoch: 4/5/2013
Index Date (METOP-A) Time (METOP-A) Lat,Lon (METOP-A) SZA (METOP-A ) Date (NOAA-19) Time (NOAA-19) Lat,Lon (NOAA-19) SZA (NOAA-19 ) Distance(km) Time Diff (sec)
1 04/09/2013 09:00:41 -74.08,-140.70 113.61 04/09/2013 08:59:34 -74.07,-143.73 113.50 92.53 67
2 04/09/2013 09:51:34 73.42, 25.08 65.77 04/09/2013 09:50:23 73.40, 25.12 65.77 2.63 71
3 04/09/2013 10:42:16 -73.42,-167.60 114.24 04/09/2013 10:41:25 -73.40,-167.62 114.26 2.68 51
4 04/09/2013 11:32:57 73.36, -0.41 65.69 04/09/2013 11:32:27 73.37, -0.32 65.70 3.32 30
5 04/09/2013 12:23:39 -73.36, 166.91 114.33 04/09/2013 12:23:29 -73.37, 166.93 114.32 1.37 10
6 04/09/2013 13:14:19 73.34, -25.79 65.65 04/09/2013 13:14:31 73.34, -25.76 65.64 0.96 12
7 04/09/2013 14:05:01 -73.34, 141.53 114.37 04/09/2013 14:05:33 -73.33, 141.49 114.38 1.58 32
8 04/09/2013 14:55:41 73.32, -51.16 65.61 04/09/2013 14:56:35 73.30, -51.20 65.58 2.63 54
9 04/09/2013 15:46:24 -73.27, 116.05 114.46 04/09/2013 15:47:37 -73.30, 116.05 114.44 3.09 73
10 04/19/2013 09:44:36 74.00, 28.15 62.70 04/19/2013 09:43:28 73.97, 25.60 62.77 78.40 68
11 04/19/2013 10:35:29 -73.45,-165.82 117.83 04/19/2013 10:34:17 -73.45,-165.89 117.81 2.10 72
12 04/19/2013 11:26:10 73.38, 1.37 62.11 04/19/2013 11:25:21 73.40, 1.45 62.13 3.29 49




NCC Satellite Simultaneous Nadir Overpasses (SNOs) Prediction Service
